Weather History for Ann Arbor, MI

Change the Weather History Date:

Tuesday, November 11, 2014

  Actual Average Record
Temperature  
Mean Temperature 49 °F -  
Max Temperature 61 °F 48 °F 68 °F (2012)
Min Temperature 36 °F 30 °F 19 °F (2008)
Degree Days  
Heating Degree Days 16    
Moisture  
Dew Point 37 °F    
Average Humidity 68    
Maximum Humidity 83    
Minimum Humidity 48    
Precipitation  
Precipitation 0.02 in - - ()
Sea Level Pressure  
Sea Level Pressure 29.75 in    
Wind  
Wind Speed 11 mph (SW)    
Max Wind Speed 23 mph    
Max Gust Speed 31 mph    
Visibility 10 miles    
Events Rain , Snow    
Averages and records for this station are not official NWS values.
T = Trace of Precipitation, MM = Missing Value Source: NWS Daily Summary

Daily Weather History Graph

Daily Weather History Graph

Search for Another Location

Airport:

Trip Planner

Search our weather history database for the weather conditions in past years. The results will help you decide how hot, cold, wet, or windy it might be!

Date:

Astronomy

Nov. 11, 2014 Rise Set
Actual Time 7:20 AM EST 5:17 PM EST
Civil Twilight 6:50 AM EST 5:46 PM EST
Nautical Twilight 6:16 AM EST 6:20 PM EST
Astronomical Twilight 5:43 AM EST 6:53 PM EST
Moon 9:39 PM EST (11/11) 11:26 AM EST (11/11)
Length of Visible Light 10h 56m
Length of Day
9h 56m
Waning Gibbous, 77% of the Moon is Illuminated
Nov 11
Waning Gibbous
Nov 14
Last Quarter
Nov 22
New
Nov 29
First Quarter
Dec 6
Full

Hourly Weather History & Observations

Time (EST) Temp. Windchill Dew Point Humidity Pressure Visibility Wind Dir Wind Speed Gust Speed Precip Events Conditions
12:53 AM 43.0 °F 40.3 °F 30.0 °F 60% 29.73 in 10.0 mi SSW 4.6 mph - N/A   Clear
1:53 AM 44.1 °F 40.8 °F 30.9 °F 60% 29.73 in 10.0 mi SSW 5.8 mph - N/A   Clear
2:53 AM 44.1 °F 40.1 °F 32.0 °F 63% 29.73 in 10.0 mi SSW 6.9 mph - N/A   Clear
3:53 AM 42.1 °F 38.4 °F 32.0 °F 67% 29.73 in 10.0 mi SW 5.8 mph - N/A   Clear
4:53 AM 42.1 °F 38.4 °F 32.0 °F 67% 29.73 in 10.0 mi SSW 5.8 mph - N/A   Clear
5:53 AM 43.0 °F 39.5 °F 32.0 °F 65% 29.72 in 10.0 mi SSW 5.8 mph - N/A   Mostly Cloudy
6:53 AM 44.1 °F 40.1 °F 33.1 °F 65% 29.72 in 10.0 mi SSW 6.9 mph - N/A   Partly Cloudy
7:53 AM 46.0 °F 41.4 °F 34.0 °F 63% 29.73 in 10.0 mi SSW 9.2 mph - N/A   Overcast
8:53 AM 50.0 °F - 35.1 °F 57% 29.72 in 10.0 mi SSW 9.2 mph - N/A   Overcast
9:53 AM 54.0 °F - 37.0 °F 53% 29.70 in 10.0 mi SSW 13.8 mph - N/A   Clear
10:53 AM 59.0 °F - 39.0 °F 48% 29.69 in 10.0 mi SW 16.1 mph 24.2 mph N/A   Mostly Cloudy
11:53 AM 60.1 °F - 41.0 °F 49% 29.66 in 10.0 mi SSW 15.0 mph 21.9 mph N/A   Overcast
12:53 PM 61.0 °F - 42.1 °F 50% 29.67 in 10.0 mi SSW 15.0 mph 23.0 mph N/A   Overcast
1:53 PM 60.1 °F - 43.0 °F 53% 29.67 in 10.0 mi SW 17.3 mph 26.5 mph N/A   Overcast
2:53 PM 57.9 °F - 45.0 °F 62% 29.68 in 9.0 mi SW 17.3 mph 27.6 mph 0.00 in Rain Light Rain
3:38 PM 55.0 °F - 46.9 °F 74% 29.69 in 10.0 mi SW 17.3 mph 23.0 mph 0.00 in   Overcast
3:53 PM 54.0 °F - 46.9 °F 77% 29.69 in 6.0 mi SW 13.8 mph - 0.00 in   Haze
4:53 PM 52.0 °F - 46.9 °F 83% 29.72 in 7.0 mi SW 18.4 mph 31.1 mph 0.00 in Rain Light Rain
5:53 PM 46.9 °F - 42.1 °F 83% 29.77 in 10.0 mi West 23.0 mph 29.9 mph 0.02 in   Overcast
6:07 PM 46.0 °F 39.0 °F 41.0 °F 83% 29.76 in 10.0 mi West 17.3 mph 26.5 mph 0.00 in   Overcast
6:53 PM 44.1 °F 35.7 °F 39.0 °F 82% 29.81 in 10.0 mi West 20.7 mph 31.1 mph 0.00 in   Overcast
7:22 PM 42.1 °F 33.1 °F 36.0 °F 79% 29.80 in 10.0 mi West 20.7 mph 27.6 mph N/A   Overcast
7:53 PM 41.0 °F 32.8 °F 36.0 °F 82% 29.83 in 10.0 mi West 16.1 mph 24.2 mph N/A   Overcast
8:53 PM 39.9 °F 31.8 °F 34.0 °F 79% 29.84 in 10.0 mi West 15.0 mph 24.2 mph N/A   Mostly Cloudy
9:53 PM 39.9 °F 31.4 °F 33.1 °F 77% 29.86 in 10.0 mi WNW 16.1 mph 24.2 mph N/A   Overcast
10:53 PM 37.9 °F 29.2 °F 30.9 °F 76% 29.89 in 10.0 mi WNW 15.0 mph 21.9 mph N/A   Overcast
11:53 PM 36.0 °F 26.3 °F 30.0 °F 79% 29.92 in 8.0 mi West 16.1 mph 27.6 mph 0.00 in Snow Light Snow